Regional Weather Roundup
Issued by NWS

Home | Current Version | Previous Version | Text Only | Print | Product List | Glossary Off
Versions: 1 2 3 4 5 6 7 8 9 10 11 12 13 14 15 16 17 18 19 20 21 22 23 24 25 26 27 28 29 30 31 32 33 34 35 36 37 38 39 40 41 42 43 44 45 46 47 48 49 50

000
ASUS43 KLMK 231010
RWRKY
KENTUCKY REGIONAL WEATHER ROUNDUP
NATIONAL WEATHER SERVICE LOUISVILLE KY
600 AM EDT WED JUL 23 2014

NOTE "FAIR" INDICATES FEW OR NO CLOUDS BELOW 12,000 FEET
WITH NO SIGNIFICANT WEATHER AND/OR OBSTRUCTIONS TO VISIBILITY.

KYZ001>023-026-027-061>063-070>075-231100-
WESTERN AND SOUTH CENTRAL KENTUCKY

CITY           SKY/WX    TMP DP  RH WIND       PRES   REMARKS
PADUCAH        CLEAR     74  68  81 CALM      30.02F
HENDERSON      PTCLDY    72  66  83 S7        30.01S
OWENSBORO      PTCLDY    71  70  97 CALM      30.04R
HOPKINSVILLE   CLEAR     73  73 100 SW2       30.05S
BOWLING GREEN  CLEAR     74  70  87 SW5       30.05S
GLASGOW        CLEAR     71  71 100 CALM      30.05S
$$

KYZ024-025-028>034-038-045-046-053-231100-
NORTH CENTRAL KENTUCKY

CITY           SKY/WX    TMP DP  RH WIND       PRES   REMARKS
LOUISVILLE/SDF MOCLDY    76  71  85 NW3       30.04R
LOUISVILLE/LOU PTCLDY    76  71  85 CALM      30.04R
FORT KNOX      CLOUDY    70  68  93 W2        30.04R
$$

KYZ035>037-039>044-047>052-055>060-089>105-231100-
NORTHEAST KENTUCKY

CITY           SKY/WX    TMP DP  RH WIND       PRES   REMARKS
LEXINGTON      CLEAR     74  69  85 S3        30.06R
COVINGTON      CLOUDY    74  68  81 VRB3      30.05R
FRANKFORT      CLEAR     72  70  93 CALM      30.04R
$$

KYZ054-064>069-076>088-106>120-231100-
SOUTHEAST KENTUCKY

CITY           SKY/WX    TMP DP  RH WIND       PRES   REMARKS
JACKSON        CLEAR     72  69  90 CALM      30.08R
LONDON         CLEAR     73  69  87 CALM      30.09R
SOMERSET       PTCLDY    70  70 100 CALM      30.09R FOG
MIDDLESBORO    CLOUDY    67  67 100 CALM      30.11R FOG
MONTICELLO     SUNNY     69  69 100 CALM      30.10R FOG
$$



USA.gov is the U.S. government's official web portal to all federal, state and local government web resources and services.